Weather in Raskatikha

Russia / Kurgan Oblast     55°02′34″N   65°10′24″E
temp.,
°C
wind,
m/s
gust,
m/s
humid.,
%
clouds,
%
prec.,
mm/h
press.,
hPa
HPBL,
m
16 april, fri
fri1623:00+11sw466093 0.0 102082
02:00+9wsw3468100 0.0 101941
05:00+8wsw228294 0.0 101916
08:00+11nw247868 0.0 1019150
11:00+13nne7775100 0.0 1021878
14:00+9ne787097 0.0 1023763
17:00+10ne675376 0.0 1024927
20:00+8ne4856100 0.0 1025344
17 april, sat
sat1723:00+5ene386478 0.0 1026188
02:00+3ene35684 0.0 102692
05:00+1e34742 0.0 102673
08:00+4ese22620 0.0 1027176
11:00+9se11420 0.0 1025976
14:00+11wsw33354 0.0 10241473
17:00+12w45408 0.0 10221656
20:00+8wsw586582 0.0 1021253
18 april, sun
sun1823:00+5wsw37795 0.0 1020152
02:00+4w38845 0.0 1019174
05:00+3w39885 0.0 1018192
08:00+5wnw610670 0.0 1017571
11:00+8nw8115381 0.0 10171765
14:00+6nnw1012375 0.1 10211804
17:00+2nne101147100 0.1 10251899
20:000nne710445 0.0 10291146
19 april, mon
mon1923:00−2ne69450 0.0 10311039
02:00−4nne59410 0.0 10341070
05:00−5nne56450 0.0 10351024
08:00−4ne56405 0.0 10371211
11:00−1ne56325 0.0 10371516
14:00+1ne55295 0.0 10371828
17:00+1ne453023 0.0 10371975
20:00−2ne33435 0.0 103829
20 april, tue
tue2023:00−3ne22470 0.0 103823
02:00−3ne11450 0.0 103810
05:00−3nw22454 0.0 103918
08:000wnw23350 0.0 1039448
11:00+3w332953 0.0 10381212
14:00+6w55295 0.0 10361484
17:00+6wnw56290 0.0 10351467
20:00+3w344619 0.0 103453